Terminal Aerodrome Forecast
Issued by NWS

Home | Current Version | Previous Version | Text Only | Print | Product List | Glossary On
Versions: 1 2 3 4 5 6 7 8 9 10 11 12 13 14 15 16 17 18
000
FTUS44 KLZK 020500
TAFLIT
TAF
KLIT 020520Z 0206/0306 17006KT P6SM SCT250
     FM021000 18007KT P6SM BKN020
     FM021300 20008KT 6SM BR OVC012
     FM021500 22008KT P6SM BKN020 OVC040
     FM021800 22010KT P6SM SCT025 BKN040
     FM030100 19006KT P6SM SCT080=

USA.gov is the U.S. government's official web portal to all federal, state and local government web resources and services.